Decatur, AL

5:03 AM CDT on August 21, 2019 (GMT -0500)
Pryor Regional

Weather History for KDCU - July, 2019

Change the Weather History Date:

Sunday, July 21, 2019

  Actual Average Record
Temperature  
Mean Temperature 80 °F -  
Max Temperature 88 °F 90 °F 101 °F (1952)
Min Temperature 73 °F 67 °F 60 °F (1970)
Cooling Degree Days 14    
Growing Degree Days 30 (Base 50)    
Moisture  
Dew Point 74 °F    
Average Humidity 86    
Maximum Humidity 100    
Minimum Humidity 70    
Precipitation  
Precipitation 0.11 in - - ()
Sea Level Pressure  
Sea Level Pressure 30.01 in    
Wind  
Wind Speed 7 mph (South)    
Max Wind Speed 14 mph    
Max Gust Speed -    
Visibility 10 miles    
Events Rain , Thunderstorm    
Averages and records for this station are not official NWS values.
T = Trace of Precipitation, MM = Missing Value Source: NWS Daily Summary

Daily Weather History Graph

Daily Weather History Graph

Search for Another Location

Airport or City:

Astronomy

Jul. 21, 2019 Rise Set
Actual Time 5:49 AM CDT 7:58 PM CDT
Civil Twilight 5:21 AM CDT 8:26 PM CDT
Nautical Twilight 4:46 AM CDT 9:01 PM CDT
Astronomical Twilight 4:09 AM CDT 9:38 PM CDT
Moon 11:02 PM CDT 10:01 AM CDT
Length of Visible Light 15h 05m
Length of Day
14h 08m
Waning Gibbous, 80% of the Moon is Illuminated
Jul 21
Waning Gibbous
Jul 24
Last Quarter
Jul 31
New
Aug 7
First Quarter
Aug 15
Full

Hourly Weather History & Observations

Time (CDT) Temp. Heat Index Dew Point Humidity Pressure Visibility Wind Dir Wind Speed Gust Speed Precip Events Conditions
12:53 AM 75.9 °F - 73.9 °F 94% 29.99 in 10.0 mi South 11.5 mph - N/A   Clear
1:04 AM 75.0 °F - 73.9 °F 96% 30.01 in 10.0 mi South 13.8 mph - N/A   Scattered Clouds
1:13 AM 75.0 °F - 73.9 °F 96% 30.01 in 10.0 mi South 10.4 mph - N/A   Mostly Cloudy
1:32 AM 75.0 °F - 73.9 °F 96% 30.01 in 10.0 mi South 9.2 mph - N/A   Scattered Clouds
1:53 AM 75.0 °F - 73.9 °F 96% 29.99 in 10.0 mi South 5.8 mph - N/A   Clear
2:53 AM 75.0 °F - 73.9 °F 96% 30.01 in 10.0 mi SSW 4.6 mph - N/A   Mostly Cloudy
3:53 AM 75.0 °F - 73.0 °F 94% 30.02 in 10.0 mi SW 5.8 mph - N/A   Mostly Cloudy
4:13 AM 75.0 °F - 73.0 °F 94% 30.04 in 10.0 mi North - - N/A   Scattered Clouds
4:53 AM 73.0 °F - 73.0 °F 100% 30.02 in 10.0 mi North - - N/A   Partly Cloudy
5:53 AM 73.0 °F - 72.0 °F 96% 30.02 in 10.0 mi South 5.8 mph - N/A   Mostly Cloudy
6:43 AM 75.0 °F - 73.0 °F 94% 30.05 in 10.0 mi South 8.1 mph - N/A   Overcast
6:53 AM 75.0 °F - 73.0 °F 94% 30.04 in 10.0 mi SSW 6.9 mph - N/A   Overcast
7:53 AM 75.9 °F - 73.0 °F 91% 30.04 in 10.0 mi SW 3.5 mph - N/A   Overcast
8:53 AM 77.0 °F - 73.0 °F 88% 30.05 in 10.0 mi SSW 6.9 mph - N/A   Overcast
9:21 AM 78.1 °F - 73.0 °F 84% 30.07 in 10.0 mi South 6.9 mph - N/A   Overcast
9:53 AM 80.1 °F 84.5 °F 73.9 °F 81% 30.05 in 10.0 mi South 4.6 mph - N/A   Overcast
10:53 AM 82.0 °F 87.9 °F 73.9 °F 76% 30.04 in 10.0 mi SW 8.1 mph - N/A   Scattered Clouds
11:49 AM 82.4 °F 88.2 °F 73.4 °F 74% 30.06 in 10.0 mi West 8.1 mph - N/A   Mostly Cloudy
11:53 AM 82.9 °F 89.4 °F 73.9 °F 74% 30.04 in 10.0 mi West 6.9 mph - N/A   Mostly Cloudy
12:53 PM 82.0 °F 88.6 °F 75.0 °F 79% 30.02 in 10.0 mi SE 8.1 mph - N/A   Scattered Clouds
1:24 PM 86.0 °F 95.1 °F 75.0 °F 70% 30.04 in 10.0 mi ESE 4.6 mph - N/A Thunderstorm Partly Cloudy
1:53 PM 82.9 °F 90.8 °F 75.9 °F 79% 30.01 in 10.0 mi SSE 8.1 mph - N/A Thunderstorm Mostly Cloudy
2:07 PM 82.0 °F 88.6 °F 75.0 °F 79% 30.02 in 10.0 mi SSE 10.4 mph - N/A   Mostly Cloudy
2:53 PM 84.0 °F 91.9 °F 75.0 °F 74% 29.99 in 10.0 mi SSE 6.9 mph - 0.00 in   Scattered Clouds
3:53 PM 84.0 °F 91.9 °F 75.0 °F 74% 29.98 in 10.0 mi North 3.5 mph - N/A   Partly Cloudy
4:53 PM 84.0 °F 91.9 °F 75.0 °F 74% 29.96 in 10.0 mi Calm Calm - 0.02 in   Partly Cloudy
5:53 PM 86.0 °F 95.1 °F 75.0 °F 70% 29.95 in 10.0 mi Calm Calm - N/A   Clear
6:53 PM 86.0 °F 96.0 °F 75.9 °F 72% 29.94 in 10.0 mi ESE 3.5 mph - N/A   Scattered Clouds
7:53 PM 82.9 °F 92.8 °F 78.1 °F 85% 29.95 in 10.0 mi Calm Calm - N/A   Overcast
8:04 PM 79.0 °F - 75.9 °F 90% 29.98 in 2.5 mi NE 8.1 mph - 0.07 in Rain Rain
8:12 PM 79.0 °F - 75.9 °F 90% 29.98 in 10.0 mi Calm Calm - 0.07 in Rain Light Rain
8:53 PM 81.0 °F 87.3 °F 75.9 °F 85% 29.96 in 10.0 mi SW 6.9 mph - 0.08 in Rain Light Rain
9:30 PM 78.1 °F - 77.0 °F 96% 30.00 in 10.0 mi South 3.5 mph - 0.01 in Rain , Thunderstorm Light Rain
9:53 PM 79.0 °F - 75.0 °F 88% 29.98 in 10.0 mi South 4.6 mph - 0.01 in Rain , Thunderstorm Light Rain
10:03 PM 79.0 °F - 75.0 °F 88% 30.01 in 10.0 mi South 3.5 mph - 0.00 in   Overcast
10:53 PM 78.1 °F - 73.9 °F 87% 29.98 in 10.0 mi SSW 5.8 mph - 0.00 in   Mostly Cloudy
11:53 PM 77.0 °F - 73.0 °F 88% 29.98 in 10.0 mi South 5.8 mph - N/A   Clear